Year,Month,Day,Hour,Minute,Value (Times are PST for insolation in W/m^2)
2010,09,10,00,00,0.00
2010,09,10,00,01,0.00
2010,09,10,00,02,0.00
2010,09,10,00,03,0.00
2010,09,10,00,04,0.00
2010,09,10,00,05,0.00
2010,09,10,00,06,0.00
2010,09,10,00,07,0.00
2010,09,10,00,08,0.00
2010,09,10,00,09,0.00
2010,09,10,00,10,0.00
2010,09,10,00,11,0.00
2010,09,10,00,12,0.00
2010,09,10,00,13,0.00
2010,09,10,00,14,0.00
2010,09,10,00,15,0.00
2010,09,10,00,16,0.00
2010,09,10,00,17,0.00
2010,09,10,00,18,0.00
2010,09,10,00,19,0.00
2010,09,10,00,20,0.00
2010,09,10,00,21,0.00
2010,09,10,00,22,0.00
2010,09,10,00,23,0.00
2010,09,10,00,24,0.00
2010,09,10,00,25,0.00
2010,09,10,00,26,0.00
2010,09,10,00,27,0.00
2010,09,10,00,28,0.00
2010,09,10,00,29,0.00
2010,09,10,00,30,0.00
2010,09,10,00,31,0.00
2010,09,10,00,32,0.00
2010,09,10,00,33,0.00
2010,09,10,00,34,0.00
2010,09,10,00,35,0.00
2010,09,10,00,36,0.00
2010,09,10,00,37,0.00
2010,09,10,00,38,0.00
2010,09,10,00,39,0.00
2010,09,10,00,40,0.00
2010,09,10,00,41,0.00
2010,09,10,00,42,0.00
2010,09,10,00,43,0.00
2010,09,10,00,44,0.00
2010,09,10,00,45,0.00
2010,09,10,00,46,0.00
2010,09,10,00,47,0.00
2010,09,10,00,48,0.00
2010,09,10,00,49,0.00
2010,09,10,00,50,0.00
2010,09,10,00,51,0.00
2010,09,10,00,52,0.00
2010,09,10,00,53,0.00
2010,09,10,00,54,0.00
2010,09,10,00,55,0.00
2010,09,10,00,56,0.00
2010,09,10,00,57,0.00
2010,09,10,00,58,0.00
2010,09,10,00,59,0.00
2010,09,10,01,00,0.00
2010,09,10,01,01,0.00
2010,09,10,01,02,0.00
2010,09,10,01,03,0.00
2010,09,10,01,04,0.00
2010,09,10,01,05,0.00
2010,09,10,01,06,0.00
2010,09,10,01,07,0.00
2010,09,10,01,08,0.00
2010,09,10,01,09,0.00
2010,09,10,01,10,0.00
2010,09,10,01,11,0.00
2010,09,10,01,12,0.00
2010,09,10,01,13,0.00
2010,09,10,01,14,0.00
2010,09,10,01,15,0.00
2010,09,10,01,16,0.00
2010,09,10,01,17,0.00
2010,09,10,01,18,0.00
2010,09,10,01,19,0.00
2010,09,10,01,20,0.00
2010,09,10,01,21,0.00
2010,09,10,01,22,0.00
2010,09,10,01,23,0.00
2010,09,10,01,24,0.00
2010,09,10,01,25,0.00
2010,09,10,01,26,0.00
2010,09,10,01,27,0.00
2010,09,10,01,28,0.00
2010,09,10,01,29,0.00
2010,09,10,01,30,0.00
2010,09,10,01,31,0.00
2010,09,10,01,32,0.00
2010,09,10,01,33,0.00
2010,09,10,01,34,0.00
2010,09,10,01,35,0.00
2010,09,10,01,36,0.00
2010,09,10,01,37,0.00
2010,09,10,01,38,0.00
2010,09,10,01,39,0.00
2010,09,10,01,40,0.00
2010,09,10,01,41,0.00
2010,09,10,01,42,0.00
2010,09,10,01,43,0.00
2010,09,10,01,44,0.00
2010,09,10,01,45,0.00
2010,09,10,01,46,0.00
2010,09,10,01,47,0.00
2010,09,10,01,48,0.00
2010,09,10,01,49,0.00
2010,09,10,01,50,0.00
2010,09,10,01,51,0.00
2010,09,10,01,52,0.00
2010,09,10,01,53,0.00
2010,09,10,01,54,0.00
2010,09,10,01,55,0.00
2010,09,10,01,56,0.00
2010,09,10,01,57,0.00
2010,09,10,01,58,0.00
2010,09,10,01,59,0.00
2010,09,10,02,00,0.00
2010,09,10,02,01,0.00
2010,09,10,02,02,0.00
2010,09,10,02,03,0.00
2010,09,10,02,04,0.00
2010,09,10,02,05,0.00
2010,09,10,02,06,0.00
2010,09,10,02,07,0.00
2010,09,10,02,08,0.00
2010,09,10,02,09,0.00
2010,09,10,02,10,0.00
2010,09,10,02,11,0.00
2010,09,10,02,12,0.00
2010,09,10,02,13,0.00
2010,09,10,02,14,0.00
2010,09,10,02,15,0.00
2010,09,10,02,16,0.00
2010,09,10,02,17,0.00
2010,09,10,02,18,0.00
2010,09,10,02,19,0.00
2010,09,10,02,20,0.00
2010,09,10,02,21,0.00
2010,09,10,02,22,0.00
2010,09,10,02,23,0.00
2010,09,10,02,24,0.00
2010,09,10,02,25,0.00
2010,09,10,02,26,0.00
2010,09,10,02,27,0.00
2010,09,10,02,28,0.00
2010,09,10,02,29,0.00
2010,09,10,02,30,0.00
2010,09,10,02,31,0.00
2010,09,10,02,32,0.00
2010,09,10,02,33,0.00
2010,09,10,02,34,0.00
2010,09,10,02,35,0.00
2010,09,10,02,36,0.00
2010,09,10,02,37,0.00
2010,09,10,02,38,0.00
2010,09,10,02,39,0.00
2010,09,10,02,40,0.00
2010,09,10,02,41,0.00
2010,09,10,02,42,0.00
2010,09,10,02,43,0.00
2010,09,10,02,44,0.00
2010,09,10,02,45,0.00
2010,09,10,02,46,0.00
2010,09,10,02,47,0.00
2010,09,10,02,48,0.00
2010,09,10,02,49,0.00
2010,09,10,02,50,0.00
2010,09,10,02,51,0.00
2010,09,10,02,52,0.00
2010,09,10,02,53,0.00
2010,09,10,02,54,0.00
2010,09,10,02,55,0.00
2010,09,10,02,56,0.00
2010,09,10,02,57,0.00
2010,09,10,02,58,0.00
2010,09,10,02,59,0.00
2010,09,10,03,00,0.00
2010,09,10,03,01,0.00
2010,09,10,03,02,0.00
2010,09,10,03,03,0.00
2010,09,10,03,04,0.00
2010,09,10,03,05,0.00
2010,09,10,03,06,0.00
2010,09,10,03,07,0.00
2010,09,10,03,08,0.00
2010,09,10,03,09,0.00
2010,09,10,03,10,0.00
2010,09,10,03,11,0.00
2010,09,10,03,12,0.00
2010,09,10,03,13,0.00
2010,09,10,03,14,0.00
2010,09,10,03,15,0.00
2010,09,10,03,16,0.00
2010,09,10,03,17,0.00
2010,09,10,03,18,0.00
2010,09,10,03,19,0.00
2010,09,10,03,20,0.00
2010,09,10,03,21,0.00
2010,09,10,03,22,0.00
2010,09,10,03,23,0.00
2010,09,10,03,24,0.00
2010,09,10,03,25,0.00
2010,09,10,03,26,0.00
2010,09,10,03,27,0.00
2010,09,10,03,28,0.00
2010,09,10,03,29,0.00
2010,09,10,03,30,0.00
2010,09,10,03,31,0.00
2010,09,10,03,32,0.00
2010,09,10,03,33,0.00
2010,09,10,03,34,0.00
2010,09,10,03,35,0.00
2010,09,10,03,36,0.00
2010,09,10,03,37,0.00
2010,09,10,03,38,0.00
2010,09,10,03,39,0.00
2010,09,10,03,40,0.00
2010,09,10,03,41,0.00
2010,09,10,03,42,0.00
2010,09,10,03,43,0.00
2010,09,10,03,44,0.00
2010,09,10,03,45,0.00
2010,09,10,03,46,0.00
2010,09,10,03,47,0.00
2010,09,10,03,48,0.00
2010,09,10,03,49,0.00
2010,09,10,03,50,0.00
2010,09,10,03,51,0.00
2010,09,10,03,52,0.00
2010,09,10,03,53,0.00
2010,09,10,03,54,0.00
2010,09,10,03,55,0.00
2010,09,10,03,56,0.00
2010,09,10,03,57,0.00
2010,09,10,03,58,0.00
2010,09,10,03,59,0.00
2010,09,10,04,00,0.00
2010,09,10,04,01,0.00
2010,09,10,04,02,0.00
2010,09,10,04,03,0.00
2010,09,10,04,04,0.00
2010,09,10,04,05,0.00
2010,09,10,04,06,0.00
2010,09,10,04,07,0.00
2010,09,10,04,08,0.00
2010,09,10,04,09,0.00
2010,09,10,04,10,0.00
2010,09,10,04,11,0.00
2010,09,10,04,12,0.00
2010,09,10,04,13,0.00
2010,09,10,04,14,0.00
2010,09,10,04,15,0.00
2010,09,10,04,16,0.00
2010,09,10,04,17,0.00
2010,09,10,04,18,0.00
2010,09,10,04,19,0.00
2010,09,10,04,20,0.00
2010,09,10,04,21,0.00
2010,09,10,04,22,0.00
2010,09,10,04,23,0.00
2010,09,10,04,24,0.00
2010,09,10,04,25,0.00
2010,09,10,04,26,0.00
2010,09,10,04,27,0.00
2010,09,10,04,28,0.00
2010,09,10,04,29,0.00
2010,09,10,04,30,0.00
2010,09,10,04,31,0.00
2010,09,10,04,32,0.00
2010,09,10,04,33,0.00
2010,09,10,04,34,0.00
2010,09,10,04,35,0.00
2010,09,10,04,36,0.00
2010,09,10,04,37,0.00
2010,09,10,04,38,0.00
2010,09,10,04,39,0.00
2010,09,10,04,40,0.00
2010,09,10,04,41,0.00
2010,09,10,04,42,0.00
2010,09,10,04,43,0.00
2010,09,10,04,44,0.00
2010,09,10,04,45,0.00
2010,09,10,04,46,0.00
2010,09,10,04,47,0.00
2010,09,10,04,48,0.00
2010,09,10,04,49,0.00
2010,09,10,04,50,0.00
2010,09,10,04,51,0.00
2010,09,10,04,52,0.00
2010,09,10,04,53,0.00
2010,09,10,04,54,0.00
2010,09,10,04,55,0.00
2010,09,10,04,56,0.00
2010,09,10,04,57,0.00
2010,09,10,04,58,0.00
2010,09,10,04,59,0.00
2010,09,10,05,00,0.00
2010,09,10,05,01,0.00
2010,09,10,05,02,0.00
2010,09,10,05,03,0.00
2010,09,10,05,04,0.00
2010,09,10,05,05,0.00
2010,09,10,05,06,0.00
2010,09,10,05,07,0.00
2010,09,10,05,08,0.00
2010,09,10,05,09,0.00
2010,09,10,05,10,0.00
2010,09,10,05,11,0.00
2010,09,10,05,12,0.00
2010,09,10,05,13,0.00
2010,09,10,05,14,0.00
2010,09,10,05,15,0.00
2010,09,10,05,16,0.00
2010,09,10,05,17,0.00
2010,09,10,05,18,0.00
2010,09,10,05,19,0.00
2010,09,10,05,20,0.00
2010,09,10,05,21,0.00
2010,09,10,05,22,0.00
2010,09,10,05,23,0.00
2010,09,10,05,24,0.00
2010,09,10,05,25,0.00
2010,09,10,05,26,0.00
2010,09,10,05,27,0.00
2010,09,10,05,28,0.00
2010,09,10,05,29,0.00
2010,09,10,05,30,0.00
2010,09,10,05,31,0.00
2010,09,10,05,32,0.00
2010,09,10,05,33,0.00
2010,09,10,05,34,0.00
2010,09,10,05,35,0.00
2010,09,10,05,36,0.00
2010,09,10,05,37,0.00
2010,09,10,05,38,0.00
2010,09,10,05,39,0.00
2010,09,10,05,40,0.00
2010,09,10,05,41,0.00
2010,09,10,05,42,0.00
2010,09,10,05,43,0.00
2010,09,10,05,44,0.00
2010,09,10,05,45,0.00
2010,09,10,05,46,0.00
2010,09,10,05,47,0.00
2010,09,10,05,48,0.00
2010,09,10,05,49,0.00
2010,09,10,05,50,0.00
2010,09,10,05,51,0.00
2010,09,10,05,52,0.00
2010,09,10,05,53,0.00
2010,09,10,05,54,0.00
2010,09,10,05,55,0.00
2010,09,10,05,56,0.00
2010,09,10,05,57,0.00
2010,09,10,05,58,0.00
2010,09,10,05,59,0.00
2010,09,10,06,00,0.00
2010,09,10,06,01,0.00
2010,09,10,06,02,0.00
2010,09,10,06,03,0.00
2010,09,10,06,04,0.00
2010,09,10,06,05,0.00
2010,09,10,06,06,0.00
2010,09,10,06,07,0.00
2010,09,10,06,08,0.00
2010,09,10,06,09,0.00
2010,09,10,06,10,0.00
2010,09,10,06,11,0.00
2010,09,10,06,12,0.00
2010,09,10,06,13,0.00
2010,09,10,06,14,0.00
2010,09,10,06,15,0.00
2010,09,10,06,16,0.00
2010,09,10,06,17,0.00
2010,09,10,06,18,0.00
2010,09,10,06,19,0.00
2010,09,10,06,20,0.00
2010,09,10,06,21,0.00
2010,09,10,06,22,0.00
2010,09,10,06,23,0.00
2010,09,10,06,24,0.00
2010,09,10,06,25,0.00
2010,09,10,06,26,0.00
2010,09,10,06,27,0.00
2010,09,10,06,28,0.00
2010,09,10,06,29,0.00
2010,09,10,06,30,0.00
2010,09,10,06,31,0.00
2010,09,10,06,32,0.00
2010,09,10,06,33,0.00
2010,09,10,06,34,0.00
2010,09,10,06,35,0.00
2010,09,10,06,36,0.00
2010,09,10,06,37,0.00
2010,09,10,06,38,0.00
2010,09,10,06,39,0.00
2010,09,10,06,40,0.00
2010,09,10,06,41,0.00
2010,09,10,06,42,0.00
2010,09,10,06,43,0.00
2010,09,10,06,44,0.00
2010,09,10,06,45,0.00
2010,09,10,06,46,0.00
2010,09,10,06,47,0.00
2010,09,10,06,48,0.00
2010,09,10,06,49,0.00
2010,09,10,06,50,0.00
2010,09,10,06,51,0.00
2010,09,10,06,52,0.00
2010,09,10,06,53,0.00
2010,09,10,06,54,0.00
2010,09,10,06,55,0.00
2010,09,10,06,56,0.00
2010,09,10,06,57,0.00
2010,09,10,06,58,0.00
2010,09,10,06,59,3.00
2010,09,10,07,00,5.00
2010,09,10,07,01,5.00
2010,09,10,07,02,5.00
2010,09,10,07,03,5.00
2010,09,10,07,04,5.00
2010,09,10,07,05,6.70
2010,09,10,07,06,7.00
2010,09,10,07,07,8.90
2010,09,10,07,08,9.00
2010,09,10,07,09,9.00
2010,09,10,07,10,9.00
2010,09,10,07,11,9.00
2010,09,10,07,12,9.30
2010,09,10,07,13,11.20
2010,09,10,07,14,12.50
2010,09,10,07,15,14.50
2010,09,10,07,16,16.70
2010,09,10,07,17,18.40
2010,09,10,07,18,19.80
2010,09,10,07,19,21.00
2010,09,10,07,20,22.10
2010,09,10,07,21,23.00
2010,09,10,07,22,23.00
2010,09,10,07,23,23.00
2010,09,10,07,24,23.00
2010,09,10,07,25,23.00
2010,09,10,07,26,23.00
2010,09,10,07,27,21.40
2010,09,10,07,28,21.00
2010,09,10,07,29,21.00
2010,09,10,07,30,21.00
2010,09,10,07,31,19.00
2010,09,10,07,32,19.00
2010,09,10,07,33,18.00
2010,09,10,07,34,18.00
2010,09,10,07,35,18.00
2010,09,10,07,36,18.20
2010,09,10,07,37,19.50
2010,09,10,07,38,21.00
2010,09,10,07,39,21.60
2010,09,10,07,40,23.70
2010,09,10,07,41,25.00
2010,09,10,07,42,25.00
2010,09,10,07,43,25.00
2010,09,10,07,44,25.50
2010,09,10,07,45,27.20
2010,09,10,07,46,29.20
2010,09,10,07,47,31.40
2010,09,10,07,48,32.70
2010,09,10,07,49,34.60
2010,09,10,07,50,36.60
2010,09,10,07,51,37.00
2010,09,10,07,52,38.80
2010,09,10,07,53,39.90
2010,09,10,07,54,40.00
2010,09,10,07,55,39.90
2010,09,10,07,56,38.80
2010,09,10,07,57,36.40
2010,09,10,07,58,32.80
2010,09,10,07,59,32.00
2010,09,10,08,00,32.00
2010,09,10,08,01,31.40
2010,09,10,08,02,30.00
2010,09,10,08,03,30.70
2010,09,10,08,04,32.00
2010,09,10,08,05,32.50
2010,09,10,08,06,33.00
2010,09,10,08,07,32.50
2010,09,10,08,08,29.80
2010,09,10,08,09,28.00
2010,09,10,08,10,28.00
2010,09,10,08,11,29.50
2010,09,10,08,12,30.00
2010,09,10,08,13,31.50
2010,09,10,08,14,32.80
2010,09,10,08,15,33.00
2010,09,10,08,16,34.90
2010,09,10,08,17,37.00
2010,09,10,08,18,39.00
2010,09,10,08,19,39.10
2010,09,10,08,20,39.90
2010,09,10,08,21,38.20
2010,09,10,08,22,34.60
2010,09,10,08,23,33.00
2010,09,10,08,24,32.70
2010,09,10,08,25,30.80
2010,09,10,08,26,27.20
2010,09,10,08,27,26.00
2010,09,10,08,28,26.90
2010,09,10,08,29,29.00
2010,09,10,08,30,31.00
2010,09,10,08,31,32.60
2010,09,10,08,32,33.00
2010,09,10,08,33,34.40
2010,09,10,08,34,36.50
2010,09,10,08,35,38.50
2010,09,10,08,36,39.80
2010,09,10,08,37,40.00
2010,09,10,08,38,43.60
2010,09,10,08,39,46.80
2010,09,10,08,40,50.60
2010,09,10,08,41,56.20
2010,09,10,08,42,60.30
2010,09,10,08,43,65.50
2010,09,10,08,44,70.30
2010,09,10,08,45,72.40
2010,09,10,08,46,74.00
2010,09,10,08,47,73.50
2010,09,10,08,48,73.60
2010,09,10,08,49,77.70
2010,09,10,08,50,80.50
2010,09,10,08,51,85.20
2010,09,10,08,52,91.30
2010,09,10,08,53,96.70
2010,09,10,08,54,99.20
2010,09,10,08,55,100.00
2010,09,10,08,56,98.60
2010,09,10,08,57,100.90
2010,09,10,08,58,104.10
2010,09,10,08,59,111.30
2010,09,10,09,00,115.40
2010,09,10,09,01,114.30
2010,09,10,09,02,104.50
2010,09,10,09,03,95.50
2010,09,10,09,04,94.80
2010,09,10,09,05,90.70
2010,09,10,09,06,87.10
2010,09,10,09,07,79.00
2010,09,10,09,08,76.50
2010,09,10,09,09,66.50
2010,09,10,09,10,65.00
2010,09,10,09,11,66.30
2010,09,10,09,12,71.70
2010,09,10,09,13,78.90
2010,09,10,09,14,83.00
2010,09,10,09,15,82.10
2010,09,10,09,16,81.00
2010,09,10,09,17,78.10
2010,09,10,09,18,74.80
2010,09,10,09,19,74.00
2010,09,10,09,20,74.00
2010,09,10,09,21,74.00
2010,09,10,09,22,75.50
2010,09,10,09,23,76.00
2010,09,10,09,24,76.00
2010,09,10,09,25,74.20
2010,09,10,09,26,74.00
2010,09,10,09,27,79.40
2010,09,10,09,28,86.70
2010,09,10,09,29,93.40
2010,09,10,09,30,97.80
2010,09,10,09,31,102.60
2010,09,10,09,32,105.00
2010,09,10,09,33,105.00
2010,09,10,09,34,105.60
2010,09,10,09,35,108.50
2010,09,10,09,36,113.10
2010,09,10,09,37,116.90
2010,09,10,09,38,115.50
2010,09,10,09,39,107.50
2010,09,10,09,40,95.40
2010,09,10,09,41,84.30
2010,09,10,09,42,79.70
2010,09,10,09,43,82.50
2010,09,10,09,44,89.20
2010,09,10,09,45,95.70
2010,09,10,09,46,99.40
2010,09,10,09,47,101.70
2010,09,10,09,48,103.90
2010,09,10,09,49,104.90
2010,09,10,09,50,105.10
2010,09,10,09,51,107.20
2010,09,10,09,52,109.00
2010,09,10,09,53,109.30
2010,09,10,09,54,111.60
2010,09,10,09,55,114.00
2010,09,10,09,56,114.00
2010,09,10,09,57,112.40
2010,09,10,09,58,107.40
2010,09,10,09,59,104.60
2010,09,10,10,00,104.00
2010,09,10,10,01,103.00
2010,09,10,10,02,102.00
2010,09,10,10,03,100.80
2010,09,10,10,04,100.00
2010,09,10,10,05,101.30
2010,09,10,10,06,103.50
2010,09,10,10,07,104.00
2010,09,10,10,08,104.80
2010,09,10,10,09,106.60
2010,09,10,10,10,107.00
2010,09,10,10,11,105.10
2010,09,10,10,12,105.00
2010,09,10,10,13,105.30
2010,09,10,10,14,111.50
2010,09,10,10,15,116.70
2010,09,10,10,16,124.10
2010,09,10,10,17,131.90
2010,09,10,10,18,140.80
2010,09,10,10,19,147.80
2010,09,10,10,20,154.80
2010,09,10,10,21,158.00
2010,09,10,10,22,156.70
2010,09,10,10,23,154.10
2010,09,10,10,24,151.90
2010,09,10,10,25,151.00
2010,09,10,10,26,153.30
2010,09,10,10,27,158.20
2010,09,10,10,28,164.60
2010,09,10,10,29,173.20
2010,09,10,10,30,182.80
2010,09,10,10,31,190.50
2010,09,10,10,32,196.00
2010,09,10,10,33,198.70
2010,09,10,10,34,199.00
2010,09,10,10,35,199.00
2010,09,10,10,36,199.10
2010,09,10,10,37,200.30
2010,09,10,10,38,206.50
2010,09,10,10,39,212.30
2010,09,10,10,40,221.10
2010,09,10,10,41,224.50
2010,09,10,10,42,221.70
2010,09,10,10,43,216.40
2010,09,10,10,44,211.40
2010,09,10,10,45,209.00
2010,09,10,10,46,209.00
2010,09,10,10,47,210.00
2010,09,10,10,48,212.50
2010,09,10,10,49,219.20
2010,09,10,10,50,231.80
2010,09,10,10,51,250.70
2010,09,10,10,52,270.30
2010,09,10,10,53,284.80
2010,09,10,10,54,294.80
2010,09,10,10,55,289.00
2010,09,10,10,56,281.60
2010,09,10,10,57,281.00
2010,09,10,10,58,285.00
2010,09,10,10,59,294.20
2010,09,10,11,00,298.60
2010,09,10,11,01,289.20
2010,09,10,11,02,260.90
2010,09,10,11,03,240.20
2010,09,10,11,04,227.00
2010,09,10,11,05,220.80
2010,09,10,11,06,220.90
2010,09,10,11,07,223.80
2010,09,10,11,08,225.00
2010,09,10,11,09,223.20
2010,09,10,11,10,217.70
2010,09,10,11,11,212.40
2010,09,10,11,12,212.20
2010,09,10,11,13,214.80
2010,09,10,11,14,219.20
2010,09,10,11,15,224.00
2010,09,10,11,16,226.60
2010,09,10,11,17,228.60
2010,09,10,11,18,231.50
2010,09,10,11,19,232.00
2010,09,10,11,20,232.00
2010,09,10,11,21,232.00
2010,09,10,11,22,239.20
2010,09,10,11,23,243.90
2010,09,10,11,24,242.80
2010,09,10,11,25,240.70
2010,09,10,11,26,239.40
2010,09,10,11,27,241.50
2010,09,10,11,28,243.30
2010,09,10,11,29,244.60
2010,09,10,11,30,247.90
2010,09,10,11,31,251.00
2010,09,10,11,32,249.60
2010,09,10,11,33,247.00
2010,09,10,11,34,246.00
2010,09,10,11,35,240.00
2010,09,10,11,36,240.20
2010,09,10,11,37,250.00
2010,09,10,11,38,255.90
2010,09,10,11,39,254.00
2010,09,10,11,40,254.60
2010,09,10,11,41,262.60
2010,09,10,11,42,270.90
2010,09,10,11,43,277.70
2010,09,10,11,44,278.90
2010,09,10,11,45,287.80
2010,09,10,11,46,304.10
2010,09,10,11,47,323.20
2010,09,10,11,48,335.70
2010,09,10,11,49,346.80
2010,09,10,11,50,349.00
2010,09,10,11,51,345.10
2010,09,10,11,52,341.20
2010,09,10,11,53,333.60
2010,09,10,11,54,324.90
2010,09,10,11,55,319.20
2010,09,10,11,56,316.00
2010,09,10,11,57,318.10
2010,09,10,11,58,321.70
2010,09,10,11,59,326.60
2010,09,10,12,00,335.20
2010,09,10,12,01,343.90
2010,09,10,12,02,353.20
2010,09,10,12,03,352.60
2010,09,10,12,04,336.80
2010,09,10,12,05,317.90
2010,09,10,12,06,308.40
2010,09,10,12,07,308.00
2010,09,10,12,08,311.00
2010,09,10,12,09,314.40
2010,09,10,12,10,353.00
2010,09,10,12,11,434.40
2010,09,10,12,12,406.60
2010,09,10,12,13,378.40
2010,09,10,12,14,371.50
2010,09,10,12,15,370.80
2010,09,10,12,16,361.20
2010,09,10,12,17,367.40
2010,09,10,12,18,383.20
2010,09,10,12,19,384.10
2010,09,10,12,20,415.50
2010,09,10,12,21,429.20
2010,09,10,12,22,420.00
2010,09,10,12,23,420.00
2010,09,10,12,24,526.10
2010,09,10,12,25,510.10
2010,09,10,12,26,451.80
2010,09,10,12,27,443.00
2010,09,10,12,28,405.60
2010,09,10,12,29,373.70
2010,09,10,12,30,353.90
2010,09,10,12,31,339.20
2010,09,10,12,32,343.60
2010,09,10,12,33,355.90
2010,09,10,12,34,364.00
2010,09,10,12,35,363.20
2010,09,10,12,36,359.20
2010,09,10,12,37,357.50
2010,09,10,12,38,361.40
2010,09,10,12,39,368.50
2010,09,10,12,40,371.00
2010,09,10,12,41,368.60
2010,09,10,12,42,361.50
2010,09,10,12,43,351.20
2010,09,10,12,44,343.10
2010,09,10,12,45,343.60
2010,09,10,12,46,351.80
2010,09,10,12,47,371.10
2010,09,10,12,48,378.00
2010,09,10,12,49,435.00
2010,09,10,12,50,454.00
2010,09,10,12,51,336.70
2010,09,10,12,52,315.10
2010,09,10,12,53,326.40
2010,09,10,12,54,353.30
2010,09,10,12,55,378.90
2010,09,10,12,56,396.70
2010,09,10,12,57,401.00
2010,09,10,12,58,405.40
2010,09,10,12,59,436.10
2010,09,10,13,00,465.50
2010,09,10,13,01,422.90
2010,09,10,13,02,377.00
2010,09,10,13,03,353.10
2010,09,10,13,04,343.60
2010,09,10,13,05,341.90
2010,09,10,13,06,346.70
2010,09,10,13,07,355.80
2010,09,10,13,08,380.40
2010,09,10,13,09,389.50
2010,09,10,13,10,391.90
2010,09,10,13,11,397.50
2010,09,10,13,12,399.00
2010,09,10,13,13,380.40
2010,09,10,13,14,365.30
2010,09,10,13,15,360.20
2010,09,10,13,16,369.00
2010,09,10,13,17,389.40
2010,09,10,13,18,416.60
2010,09,10,13,19,455.60
2010,09,10,13,20,524.00
2010,09,10,13,21,524.00
2010,09,10,13,22,576.10
2010,09,10,13,23,726.10
2010,09,10,13,24,709.80
2010,09,10,13,25,644.60
2010,09,10,13,26,590.40
2010,09,10,13,27,555.00
2010,09,10,13,28,555.00
2010,09,10,13,29,555.00
2010,09,10,13,30,555.00
2010,09,10,13,31,555.00
2010,09,10,13,32,794.30
2010,09,10,13,33,914.00
2010,09,10,13,34,1048.20
2010,09,10,13,35,1093.00
2010,09,10,13,36,542.30
2010,09,10,13,37,452.40
2010,09,10,13,38,463.00
2010,09,10,13,39,503.90
2010,09,10,13,40,506.00
2010,09,10,13,41,506.00
2010,09,10,13,42,506.00
2010,09,10,13,43,506.00
2010,09,10,13,44,494.20
2010,09,10,13,45,441.30
2010,09,10,13,46,413.30
2010,09,10,13,47,394.30
2010,09,10,13,48,371.50
2010,09,10,13,49,364.20
2010,09,10,13,50,359.50
2010,09,10,13,51,359.50
2010,09,10,13,52,362.20
2010,09,10,13,53,364.00
2010,09,10,13,54,364.00
2010,09,10,13,55,367.40
2010,09,10,13,56,371.90
2010,09,10,13,57,375.20
2010,09,10,13,58,384.40
2010,09,10,13,59,408.90
2010,09,10,14,00,493.80
2010,09,10,14,01,508.00
2010,09,10,14,02,501.00
2010,09,10,14,03,568.80
2010,09,10,14,04,547.00
2010,09,10,14,05,547.00
2010,09,10,14,06,552.40
2010,09,10,14,07,573.60
2010,09,10,14,08,538.50
2010,09,10,14,09,564.20
2010,09,10,14,10,571.00
2010,09,10,14,11,513.50
2010,09,10,14,12,406.90
2010,09,10,14,13,385.60
2010,09,10,14,14,363.00
2010,09,10,14,15,347.00
2010,09,10,14,16,335.00
2010,09,10,14,17,325.80
2010,09,10,14,18,321.00
2010,09,10,14,19,323.40
2010,09,10,14,20,328.80
2010,09,10,14,21,333.20
2010,09,10,14,22,332.40
2010,09,10,14,23,323.50
2010,09,10,14,24,304.90
2010,09,10,14,25,287.90
2010,09,10,14,26,274.00
2010,09,10,14,27,269.10
2010,09,10,14,28,272.70
2010,09,10,14,29,279.90
2010,09,10,14,30,285.40
2010,09,10,14,31,286.00
2010,09,10,14,32,281.50
2010,09,10,14,33,275.40
2010,09,10,14,34,269.50
2010,09,10,14,35,267.80
2010,09,10,14,36,270.40
2010,09,10,14,37,271.50
2010,09,10,14,38,272.50
2010,09,10,14,39,276.30
2010,09,10,14,40,279.90
2010,09,10,14,41,285.10
2010,09,10,14,42,292.00
2010,09,10,14,43,305.10
2010,09,10,14,44,329.20
2010,09,10,14,45,389.60
2010,09,10,14,46,428.10
2010,09,10,14,47,431.00
2010,09,10,14,48,431.00
2010,09,10,14,49,461.40
2010,09,10,14,50,448.00
2010,09,10,14,51,428.90
2010,09,10,14,52,408.10
2010,09,10,14,53,389.60
2010,09,10,14,54,375.80
2010,09,10,14,55,359.80
2010,09,10,14,56,344.90
2010,09,10,14,57,329.60
2010,09,10,14,58,319.10
2010,09,10,14,59,315.50
2010,09,10,15,00,320.50
2010,09,10,15,01,334.40
2010,09,10,15,02,356.90
2010,09,10,15,03,382.00
2010,09,10,15,04,399.50
2010,09,10,15,05,400.00
2010,09,10,15,06,402.80
2010,09,10,15,07,390.40
2010,09,10,15,08,387.00
2010,09,10,15,09,375.10
2010,09,10,15,10,340.70
2010,09,10,15,11,329.00
2010,09,10,15,12,320.00
2010,09,10,15,13,314.30
2010,09,10,15,14,307.30
2010,09,10,15,15,300.70
2010,09,10,15,16,301.00
2010,09,10,15,17,315.10
2010,09,10,15,18,343.10
2010,09,10,15,19,372.60
2010,09,10,15,20,390.40
2010,09,10,15,21,403.00
2010,09,10,15,22,429.50
2010,09,10,15,23,448.50
2010,09,10,15,24,470.00
2010,09,10,15,25,501.00
2010,09,10,15,26,706.40
2010,09,10,15,27,817.00
2010,09,10,15,28,817.00
2010,09,10,15,29,453.80
2010,09,10,15,30,355.40
2010,09,10,15,31,331.40
2010,09,10,15,32,314.40
2010,09,10,15,33,295.90
2010,09,10,15,34,274.00
2010,09,10,15,35,252.10
2010,09,10,15,36,235.70
2010,09,10,15,37,230.30
2010,09,10,15,38,232.00
2010,09,10,15,39,232.40
2010,09,10,15,40,235.20
2010,09,10,15,41,240.10
2010,09,10,15,42,242.40
2010,09,10,15,43,239.50
2010,09,10,15,44,235.60
2010,09,10,15,45,235.40
2010,09,10,15,46,238.00
2010,09,10,15,47,239.00
2010,09,10,15,48,240.20
2010,09,10,15,49,238.60
2010,09,10,15,50,236.40
2010,09,10,15,51,236.70
2010,09,10,15,52,242.20
2010,09,10,15,53,257.50
2010,09,10,15,54,293.20
2010,09,10,15,55,384.20
2010,09,10,15,56,473.80
2010,09,10,15,57,415.00
2010,09,10,15,58,405.30
2010,09,10,15,59,396.60
2010,09,10,16,00,436.00
2010,09,10,16,01,436.00
2010,09,10,16,02,407.80
2010,09,10,16,03,284.80
2010,09,10,16,04,277.30
2010,09,10,16,05,293.30
2010,09,10,16,06,345.60
2010,09,10,16,07,381.10
2010,09,10,16,08,388.80
2010,09,10,16,09,416.00
2010,09,10,16,10,424.00
2010,09,10,16,11,616.00
2010,09,10,16,12,716.80
2010,09,10,16,13,701.00
2010,09,10,16,14,701.00
2010,09,10,16,15,701.00
2010,09,10,16,16,323.00
2010,09,10,16,17,187.60
2010,09,10,16,18,192.30
2010,09,10,16,19,216.70
2010,09,10,16,20,236.10
2010,09,10,16,21,234.90
2010,09,10,16,22,251.40
2010,09,10,16,23,255.30
2010,09,10,16,24,256.80
2010,09,10,16,25,252.30
2010,09,10,16,26,265.80
2010,09,10,16,27,276.10
2010,09,10,16,28,277.60
2010,09,10,16,29,288.00
2010,09,10,16,30,288.00
2010,09,10,16,31,273.10
2010,09,10,16,32,255.00
2010,09,10,16,33,241.90
2010,09,10,16,34,226.10
2010,09,10,16,35,219.80
2010,09,10,16,36,221.50
2010,09,10,16,37,214.00
2010,09,10,16,38,209.40
2010,09,10,16,39,209.00
2010,09,10,16,40,209.00
2010,09,10,16,41,203.10
2010,09,10,16,42,192.50
2010,09,10,16,43,185.40
2010,09,10,16,44,183.00
2010,09,10,16,45,181.00
2010,09,10,16,46,181.60
2010,09,10,16,47,185.00
2010,09,10,16,48,186.00
2010,09,10,16,49,192.20
2010,09,10,16,50,200.30
2010,09,10,16,51,204.90
2010,09,10,16,52,207.00
2010,09,10,16,53,204.10
2010,09,10,16,54,196.00
2010,09,10,16,55,189.90
2010,09,10,16,56,186.40
2010,09,10,16,57,183.80
2010,09,10,16,58,179.80
2010,09,10,16,59,173.20
2010,09,10,17,00,168.20
2010,09,10,17,01,165.50
2010,09,10,17,02,165.00
2010,09,10,17,03,153.20
2010,09,10,17,04,149.20
2010,09,10,17,05,150.90
2010,09,10,17,06,152.90
2010,09,10,17,07,165.60
2010,09,10,17,08,175.50
2010,09,10,17,09,164.70
2010,09,10,17,10,148.30
2010,09,10,17,11,129.80
2010,09,10,17,12,111.60
2010,09,10,17,13,104.20
2010,09,10,17,14,102.00
2010,09,10,17,15,101.30
2010,09,10,17,16,98.70
2010,09,10,17,17,95.20